Total_Precipitation_Accumulation
0.05 0.09 0.15 0.19 0.17 0.13 0.09 0.07 0.09 0.16 0.31 0.39 0.49 0.54 0.55 0.56 0.53 0.48 0.44 0.40 0.33 0.31 0.32 0.40 0.53 0.56 0.62 0.74 0.91 0.93 1.06 1.19 1.25 1.36 1.44 1.48 1.55 1.56 1.52 1.51 1.52 1.65 1.75 1.75
0.04 0.07 0.11 0.13 0.16 0.11 0.09 0.07 0.07 0.15 0.34 0.42 0.43 0.46 0.55 0.56 0.56 0.53 0.44 0.39 0.42 0.44 0.42 0.45 0.49 0.56 0.64 0.68 0.81 1.00 1.25 1.52 1.54 1.63 1.69 1.79 1.93 2.00 1.93 1.87 1.93 1.98 1.94 1.87
0.07 0.10 0.11 0.15 0.15 0.12 0.14 0.13 0.14 0.22 0.33 0.37 0.42 0.51 0.70 0.72 0.67 0.66 0.59 0.56 0.57 0.63 0.60 0.57 0.57 0.61 0.68 0.73 0.85 1.08 1.33 1.57 1.76 1.87 1.94 2.03 2.14 2.15 2.09 2.15 2.28 2.31 2.20 2.02
0.12 0.16 0.22 0.19 0.19 0.17 0.19 0.22 0.26 0.34 0.37 0.47 0.65 0.76 0.88 0.93 0.83 0.79 0.70 0.63 0.64 0.73 0.78 0.73 0.71 0.78 0.88 1.02 1.16 1.35 1.54 1.72 1.89 1.91 1.92 1.98 2.06 2.00 2.01 2.12 2.19 2.23 2.20 2.08
0.22 0.25 0.24 0.26 0.29 0.30 0.34 0.46 0.46 0.54 0.59 0.68 0.77 0.76 0.81 0.77 0.68 0.63 0.60 0.67 0.70 0.76 0.86 0.89 0.91 0.98 1.04 1.14 1.26 1.44 1.61 1.69 1.72 1.81 1.89 1.94 1.97 1.98 2.01 2.01 1.93 1.85 1.83 1.85
0.36 0.38 0.40 0.42 0.44 0.41 0.47 0.88 0.90 0.83 0.80 0.77 0.80 0.97 0.92 0.74 0.66 0.64 0.62 0.65 0.74 0.74 0.79 0.87 0.97 0.97 1.01 1.12 1.30 1.51 1.67 1.70 1.69 1.78 1.87 1.94 1.98 1.99 1.92 1.84 1.78 1.74 1.69 1.72
0.49 0.53 0.48 0.47 0.42 0.40 0.71 1.02 0.98 0.96 1.00 0.93 0.99 1.04 0.96 0.80 0.77 0.72 0.68 0.65 0.68 0.76 0.82 0.88 0.98 1.01 1.08 1.19 1.31 1.40 1.47 1.54 1.60 1.75 1.88 1.91 1.94 1.89 1.83 1.76 1.78 1.79 1.73 1.64
0.65 0.79 0.82 0.61 0.51 0.71 0.94 0.83 0.97 1.08 1.07 1.03 0.96 0.88 0.89 0.86 0.88 0.83 0.74 0.76 0.78 0.83 0.96 1.03 1.09 1.10 1.16 1.14 1.17 1.27 1.27 1.32 1.36 1.46 1.59 1.64 1.69 1.64 1.64 1.61 1.56 1.55 1.53 1.45
0.88 0.98 0.82 0.70 0.73 0.81 0.83 0.84 0.89 1.00 1.08 1.05 1.06 1.02 0.88 0.82 0.80 0.90 0.94 0.92 0.89 0.88 0.93 1.00 1.09 1.16 1.20 1.14 1.07 1.06 1.10 1.17 1.21 1.24 1.37 1.50 1.52 1.46 1.46 1.45 1.41 1.38 1.34 1.29
1.07 1.13 0.99 0.91 0.87 0.81 0.79 0.81 0.82 0.92 1.05 1.12 1.06 0.91 0.82 0.73 0.64 0.61 0.64 0.68 0.76 0.81 0.88 1.02 0.99 1.01 1.06 1.09 1.06 1.10 1.14 1.14 1.16 1.19 1.29 1.50 1.58 1.46 1.38 1.35 1.31 1.28 1.24 1.25
1.17 1.24 1.06 0.95 0.90 0.92 0.87 0.82 0.83 0.92 1.01 1.00 0.89 0.83 0.77 0.68 0.58 0.52 0.51 0.53 0.57 0.62 0.65 0.72 0.74 0.77 0.81 0.87 0.93 0.97 0.96 0.92 0.90 0.97 1.10 1.30 1.42 1.38 1.25 1.21 1.25 1.27 1.25 1.22
1.25 1.14 1.17 1.19 1.08 1.04 1.05 1.01 0.97 1.00 1.05 0.96 0.85 0.78 0.71 0.60 0.52 0.49 0.46 0.46 0.51 0.55 0.57 0.59 0.64 0.73 0.82 0.95 1.06 1.03 0.94 0.88 0.86 0.86 0.95 1.14 1.34 1.41 1.25 1.06 1.08 1.07 1.02 0.99
1.07 1.03 1.16 1.22 1.23 1.25 1.29 1.21 1.14 1.11 1.03 0.91 0.88 0.79 0.68 0.62 0.55 0.52 0.49 0.48 0.52 0.55 0.59 0.65 0.68 0.66 0.70 0.83 0.94 1.02 0.98 0.93 0.90 0.89 0.92 1.02 1.24 1.47 1.51 1.28 1.06 0.97 0.85 0.76
1.04 1.06 1.24 1.31 1.36 1.39 1.36 1.29 1.22 1.23 1.13 1.00 0.89 0.78 0.70 0.71 0.65 0.59 0.57 0.60 0.66 0.68 0.70 0.73 0.73 0.70 0.68 0.75 0.83 0.92 0.95 0.92 0.84 0.80 0.84 0.94 1.15 1.43 1.60 1.54 1.35 1.10 0.84 0.69
1.07 1.14 1.18 1.12 1.18 1.23 1.25 1.22 1.14 1.21 1.16 1.05 0.90 0.75 0.66 0.64 0.66 0.65 0.65 0.72 0.85 0.85 0.79 0.76 0.73 0.71 0.68 0.72 0.78 0.82 0.87 0.87 0.82 0.81 0.84 0.89 1.07 1.33 1.52 1.57 1.49 1.34 1.03 0.73
1.06 1.08 0.97 0.93 1.02 1.09 1.11 1.07 0.99 1.05 1.06 1.00 0.93 0.83 0.74 0.69 0.68 0.68 0.72 0.84 1.00 1.02 0.89 0.82 0.80 0.79 0.80 0.79 0.75 0.72 0.75 0.77 0.67 0.66 0.71 0.73 0.83 1.04 1.28 1.41 1.36 1.28 1.09 0.72
1.01 1.06 1.01 0.93 1.00 1.07 1.09 1.00 0.96 0.97 0.98 0.99 1.01 0.95 0.91 0.88 0.86 0.86 0.93 1.00 1.05 1.02 0.91 0.83 0.79 0.75 0.74 0.78 0.79 0.73 0.69 0.67 0.59 0.51 0.56 0.61 0.67 0.85 1.10 1.26 1.21 1.12 0.99 0.67
0.87 0.83 0.83 0.82 0.88 0.95 0.94 0.84 0.84 0.86 0.89 0.98 1.03 1.01 1.05 1.04 1.03 1.10 1.14 1.12 1.03 0.89 0.79 0.75 0.69 0.65 0.63 0.60 0.58 0.56 0.56 0.58 0.54 0.51 0.55 0.56 0.60 0.76 0.99 1.15 1.11 1.05 0.95 0.71
0.66 0.61 0.62 0.59 0.62 0.69 0.69 0.67 0.66 0.68 0.70 0.78 0.85 0.89 0.94 0.95 0.96 1.05 1.07 1.17 1.21 1.08 0.84 0.65 0.64 0.56 0.54 0.51 0.48 0.45 0.43 0.44 0.42 0.43 0.46 0.46 0.56 0.74 0.90 0.99 0.96 0.91 0.80 0.68
0.61 0.61 0.52 0.49 0.48 0.49 0.51 0.50 0.49 0.53 0.57 0.64 0.66 0.66 0.73 0.79 0.87 1.01 1.09 1.19 1.24 1.14 0.93 0.75 0.60 0.49 0.42 0.35 0.33 0.34 0.37 0.40 0.41 0.44 0.46 0.52 0.62 0.75 0.82 0.82 0.80 0.77 0.73 0.72
0.61 0.59 0.46 0.42 0.38 0.37 0.37 0.36 0.35 0.38 0.43 0.46 0.48 0.50 0.55 0.63 0.73 0.91 1.21 1.39 1.21 0.98 0.82 0.73 0.55 0.42 0.35 0.32 0.28 0.28 0.31 0.35 0.41 0.47 0.51 0.56 0.65 0.73 0.75 0.74 0.70 0.67 0.67 0.70
0.62 0.54 0.47 0.41 0.36 0.37 0.33 0.31 0.31 0.32 0.33 0.33 0.36 0.42 0.49 0.58 0.70 0.80 0.97 1.23 1.24 1.12 0.83 0.61 0.46 0.36 0.33 0.31 0.28 0.29 0.31 0.32 0.38 0.44 0.47 0.52 0.62 0.70 0.68 0.62 0.57 0.56 0.59 0.65
0.62 0.54 0.52 0.47 0.41 0.37 0.32 0.31 0.31 0.33 0.30 0.30 0.33 0.38 0.45 0.55 0.66 0.91 1.04 0.95 0.99 1.10 0.86 0.63 0.54 0.44 0.32 0.27 0.29 0.31 0.31 0.36 0.43 0.46 0.44 0.47 0.50 0.55 0.58 0.55 0.55 0.56 0.61 0.61
0.61 0.55 0.50 0.42 0.38 0.37 0.37 0.33 0.31 0.35 0.32 0.28 0.25 0.27 0.34 0.47 0.54 0.66 0.83 0.89 0.91 0.97 0.78 0.61 0.52 0.41 0.33 0.30 0.34 0.38 0.44 0.51 0.52 0.46 0.42 0.43 0.46 0.48 0.53 0.52 0.49 0.53 0.58 0.60
0.61 0.52 0.46 0.40 0.38 0.38 0.36 0.30 0.29 0.31 0.29 0.27 0.25 0.25 0.26 0.34 0.50 0.64 0.72 0.77 0.89 0.93 0.79 0.64 0.50 0.43 0.38 0.40 0.45 0.54 0.60 0.53 0.46 0.41 0.38 0.39 0.43 0.47 0.48 0.50 0.53 0.53 0.53 0.55
0.57 0.53 0.47 0.41 0.38 0.36 0.34 0.32 0.31 0.29 0.27 0.28 0.27 0.25 0.28 0.33 0.42 0.53 0.64 0.68 0.74 0.84 0.78 0.60 0.44 0.40 0.41 0.47 0.52 0.56 0.55 0.49 0.44 0.42 0.40 0.41 0.44 0.47 0.46 0.48 0.52 0.52 0.53 0.54
0.52 0.49 0.49 0.47 0.45 0.40 0.37 0.38 0.37 0.34 0.32 0.35 0.39 0.41 0.42 0.45 0.48 0.54 0.59 0.64 0.65 0.64 0.59 0.48 0.38 0.37 0.37 0.38 0.43 0.46 0.46 0.46 0.45 0.44 0.45 0.46 0.48 0.49 0.46 0.43 0.43 0.43 0.42 0.42